[Date Prev][Date Next][Thread Prev][Thread Next] - [Date Index][Thread Index][Author Index]
2 Line ISS Keps 2-4
- Subject: [sarex] 2 Line ISS Keps 2-4
- From: "Dave Larsen PhD" <doc@xxxxxxxxxxx>
- Date: Tue, 3 Feb 2004 18:43:38 -0800
ISS
1 25544U 98067A 04035.01310185 .00016179 00000-0 15515-3 0 1223
2 25544 51.6304 288.7554 0007692 125.3815 67.3976 15.66780547297262
----
Via the sarex mailing list at AMSAT.ORG courtesy of AMSAT-NA.
To unsubscribe, send "unsubscribe sarex" to Majordomo@amsat.org
AMSAT Home